Regional Weather Roundup
Issued by NWS

Home | Current Version | Previous Version | Text Only | Print | Product List | Glossary On
Versions: 1 2 3 4 5 6 7 8 9 10 11 12 13 14 15 16 17 18 19 20 21 22 23 24 25 26 27 28 29 30 31 32 33 34 35 36 37 38 39 40 41 42 43 44 45 46 47 48 49 50
000
ASUS43 KDMX 191401
RWRIA

WEATHER ROUNDUP FOR IOWA
NATIONAL WEATHER SERVICE DES MOINES IA
800 AM CST THU JAN 19 2017

NOTE: "FAIR" INDICATES FEW OR NO CLOUDS BELOW 12,000 FEET WITH NO
SIGNIFICANT WEATHER AND/OR OBSTRUCTIONS TO VISIBILITY.

* - THESE STATIONS ARE NOT NWS STATIONS...THUS NOT UNDER NWS
QUALITY CONTROL.  THEY ALSO DO NOT REPORT WEATHER SUCH
AS PRECIPITATION OR FOG.

IAZ001>003-012>014-020>022-031>034-043>046-191500-
   NORTHWEST IOWA

CITY           SKY/WX    TMP DP  RH WIND       PRES   REMARKS
CARROLL *      FOG       32  32 100 SE3       29.81S VSB 1
CHEROKEE *     CLEAR     31  31 100 CALM      29.77F FOG
DENISON *      CLOUDY    34  34 100 CALM      29.78S FOG
LE MARS *      PTCLDY    34  32  93 SE3       29.77S
ORANGE CITY *  CLEAR     34  34 100 S6        29.75S WCI  29
SHELDON *      MOCLDY    34  34 100 S7        29.74F WCI  28
SIOUX CITY     CLOUDY    34  33  96 E8        29.76S FOG     WCI  27
SPENCER        CLOUDY    33  32  96 S5        29.77F FOG     WCI  29
STORM LAKE *   FOG       30  30 100 SE7G13    29.78F VSB<1/4 WCI  23
$$

IAZ055>058-069>071-079>083-090>094-191500-
   SOUTHWEST IOWA

CITY           SKY/WX    TMP DP  RH WIND       PRES   REMARKS
ATLANTIC *     CLOUDY    32  32 100 CALM      29.81R FOG
AUDUBON *      CLOUDY    34  30  86 CALM      29.81S FOG
CLARINDA *     CLOUDY    36  36 100 CALM      29.82S
COUNCIL BLFS * CLOUDY    34  34 100 SE8       29.78F FOG     WCI  27
CRESTON *      CLOUDY    34  34 100 CALM      29.82S FOG
HARLAN  *      MOCLDY    32  32 100 CALM      29.82F FOG
LAMONI         CLOUDY    37  36  96 CALM      29.82S
RED OAK *      CLOUDY    34  34 100 MISG      29.81R FOG
SHENANDOAH *   CLOUDY    36  34  93 CALM      29.81R FOG
$$

IAZ047>049-059>061-072>074-084-191500-
   CENTRAL IOWA

CITY           SKY/WX    TMP DP  RH WIND       PRES   REMARKS
AMES           FOG       31  31 100 E6        29.85F VSB 1/4 WCI  25
ANKENY *       FOG       30  30 100 CALM      29.86S VSB 1/2
BOONE *        FOG       32  32 100 SE7       29.82F VSB<1/4 WCI  26
CHARITON *     CLOUDY    34  34 100 E6        29.83F FOG     WCI  29
DES MOINES     CLOUDY    33  32  96 E6        29.85S FOG     WCI  28
GRINNELL*      FOG       30  30  99 E8        29.86F VSB 1/4 WCI  22
KNOXVILLE *    CLOUDY    32  32 100 VRB6      29.83S FOG     WCI  26
MARSHALLTOWN   FOG       30  30 100 E8        29.86F VSB 1/4 WCI  22
NEWTON *       FOG       30  30 100 E8        29.85S VSB<1/4 WCI  23
PELLA *        CLOUDY    32  31  99 E6        29.87S FOG     WCI  26
PERRY *        FOG       33  33 100 E8        29.83S VSB 3/4 WCI  26
$$

IAZ004>006-015-016-023>025-035-036-191500-
   NORTH CENTRAL IOWA

CITY           SKY/WX    TMP DP  RH WIND       PRES   REMARKS
ALGONA *       FOG       32  32 100 S10       29.81F VSB<1/4 WCI  24
CLARION *      FOG       32  32 100 SE8       29.84S VSB<1/4 WCI  25
ESTHERVILLE    FOG       31  31 100 S8        29.78F VSB 1/4 WCI  23
FORT DODGE *   CLOUDY    32  30  93 SE5       29.83F WCI  27
MASON CITY     FOG       30  30 100 S10       29.86S VSB<1/4 WCI  21
FOREST CITY *  FOG       32  32 100 SE8       29.84F VSB<1/4 WCI  25
WEBSTER CITY * FOG       32  32 100 SE8       29.82S VSB<1/4 WCI  25
IOWA FALLS *   SNOW      32  31  96 SE6       29.87R VSB<1/4 WCI  26
$$

IAZ007>011-017>019-026>030-037>042-050>054-066-191500-
   NORTHEAST IOWA

CITY           SKY/WX    TMP DP  RH WIND       PRES   REMARKS
CEDAR RAPIDS   FOG       28  28 100 E6        29.88F VSB 1/2 WCI  22
CHARLES CITY * FOG       30  32 100 SE7       29.87F VSB<1/4 WCI  23
CLINTON *      PTCLDY    29  29 100 E10       29.93F FOG     WCI  20
DECORAH *      FOG       30  30 100 S8        29.89R VSB<1/4 WCI  23
DUBUQUE        FOG       30  30 100 E3        29.90F VSB 1/4
MONTICELLO *   FOG       30  30 100 CALM      29.91S VSB<1/4
OELWEIN *      FOG       30  30 100 E6        29.89S VSB<1/4 WCI  24
WATERLOO       FOG       31  30  96 SE6       29.89S VSB<1/4 WCI  25
$$

IAZ064-065-067-068-078-191500-
   EAST CENTRAL IOWA

CITY           SKY/WX    TMP DP  RH WIND       PRES   REMARKS
DAVENPORT      CLEAR     31  29  92 SE6       29.93S FOG     WCI  25
IOWA CITY      CLEAR     31  29  92 E3        29.92R FOG
MUSCATINE *      N/A     30  28  93 CALM      29.91F
QUAD CITIES    CLOUDY    31  28  89 NE3       29.92F FOG
$$

IAZ062-063-075>077-085>089-095>099-191500-
   SOUTHEAST IOWA

CITY           SKY/WX    TMP DP  RH WIND       PRES   REMARKS
BURLINGTON     CLOUDY    35  34  96 E7        29.89F FOG     WCI  29
FAIRFIELD *    CLOUDY    34  34 100 E6        29.86F FOG     WCI  29
FORT MADISON * CLOUDY    36  36 100 E6        29.89F FOG     WCI  31
KEOKUK *       CLOUDY    37  36  93 E13       29.87F FOG     WCI  29
OSKALOOSA *    CLOUDY    32  32  99 E7        29.86F FOG     WCI  26
OTTUMWA        CLOUDY    34  32  92 E6        29.84F FOG     WCI  29
WASHINGTON *   CLOUDY    32  32 100 E5        29.89F FOG     WCI  27
$$

ABBREVIATIONS USED IN REMARKS
   TC - TEMPERATURES IN CELSIUS
  WCI - WIND CHILL INDEX
   HX - HEAT INDEX
  VSB - VISIBILITY
$$





USA.gov is the U.S. government's official web portal to all federal, state and local government web resources and services.